Weather History for Istrana, Italy

Change the Weather History Date:

Tuesday, April 15, 2014

  Actual Average Record
Temperature  
Mean Temperature 55 °F -  
Max Temperature 64 °F 68 °F 78 °F (2007)
Min Temperature 46 °F 48 °F 32 °F (2001)
Degree Days  
Heating Degree Days 10    
Growing Degree Days 5 (Base 50)    
Moisture  
Dew Point 38 °F    
Average Humidity 51    
Maximum Humidity 94    
Minimum Humidity 17    
Precipitation  
Precipitation 0.00 in 0.12 in - ()
Sea Level Pressure  
Sea Level Pressure 29.94 in    
Wind  
Wind Speed 5 mph ()    
Max Wind Speed 12 mph    
Max Gust Speed -    
Visibility 10.9 miles    
Events      
Averages and records for this station are not official NWS values.
T = Trace of Precipitation, MM = Missing Value Source: Averaged Metar Reports

Daily Weather History Graph

Daily Weather History Graph

Search for Another Location

Airport:

Trip Planner

Search our weather history database for the weather conditions in past years. The results will help you decide how hot, cold, wet, or windy it might be!

Date:

Astronomy

Apr. 15, 2014 Rise Set
Actual Time 6:26 AM CEST 7:57 PM CEST
Civil Twilight 5:55 AM CEST 8:28 PM CEST
Nautical Twilight 5:17 AM CEST 9:06 PM CEST
Astronomical Twilight 4:37 AM CEST 9:47 PM CEST
Moon 8:22 PM CEST (4/15) 6:24 AM CEST (4/15)
Length of Visible Light 14h 33m
Length of Day
13h 31m
Full, 100% of the Moon is Illuminated
Apr 15
Full
Apr 22
Last Quarter
Apr 29
New
May 7
First Quarter
May 14
Full

Hourly Weather History & Observations

Time (CEST) Temp. Dew Point Humidity Pressure Visibility Wind Dir Wind Speed Gust Speed Precip Events Conditions
12:00 AM 55 °F 53 °F 91% 29.80 in 6 mi NE 3.5 mph - -  
12:55 AM 55.4 °F 53.6 °F 94% 29.80 in - NNE 3.5 mph - N/A   Clear
1:00 AM 55 °F 53 °F 89% 29.81 in 6 mi NNE 3.5 mph - -  
1:55 AM 53.6 °F 51.8 °F 94% 29.83 in 6.2 mi East 4.6 mph - N/A   Partly Cloudy
2:00 AM 54 °F 51 °F 87% 29.83 in 6 mi East 4.6 mph - -   Partly Cloudy
2:55 AM 53.6 °F 51.8 °F 94% 29.83 in 6.2 mi East 2.3 mph - N/A   Partly Cloudy
3:00 AM 53 °F 51 °F 92% 29.83 in 6 mi East 2.3 mph - -   Scattered Clouds
3:55 AM 53.6 °F 51.8 °F 94% 29.83 in - ENE 5.8 mph - N/A   Clear
4:00 AM 54 °F 51 °F 86% 29.85 in 6 mi ENE 5.8 mph - -  
4:55 AM 53.6 °F 50.0 °F 88% 29.83 in - ENE 5.8 mph - N/A   Clear
5:00 AM 54 °F 50 °F 82% 29.84 in 6 mi ENE 5.8 mph - -  
5:55 AM 51.8 °F 50.0 °F 94% 29.86 in - NE 6.9 mph - N/A   Clear
6:00 AM 53 °F 49 °F 82% 29.87 in 9 mi NE 6.9 mph - -  
6:55 AM 48.2 °F 42.8 °F 82% 29.89 in 6.2 mi NE 3.5 mph - N/A   Partly Cloudy
7:00 AM 48 °F 43 °F 77% 29.90 in 16 mi NE 3.5 mph - -   Scattered Clouds
7:55 AM 48.2 °F 42.8 °F 82% 29.92 in 6.2 mi ENE 8.1 mph - N/A   Partly Cloudy
8:00 AM 49 °F 42 °F 71% 29.94 in 22 mi ENE 8.1 mph - -   Scattered Clouds
8:55 AM 53.6 °F 42.8 °F 67% 29.95 in 6.2 mi East 8.1 mph - N/A   Scattered Clouds
9:00 AM 54 °F 43 °F 58% 29.98 in 19 mi East 8.1 mph - -   Partly Cloudy
9:55 AM 57.2 °F 41.0 °F 55% 29.98 in 6.2 mi East 9.2 mph - N/A   Scattered Clouds
10:00 AM 56 °F 41 °F 46% 30.00 in 19 mi East 9.2 mph - -   Partly Cloudy
10:55 AM 57.2 °F 37.4 °F 48% 29.98 in 6.2 mi SE 4.6 mph - N/A   Partly Cloudy
11:00 AM 58 °F 38 °F 35% 30.00 in 19 mi SE 4.6 mph - -   Scattered Clouds
11:55 AM 60.8 °F 35.6 °F 39% 29.98 in 6.2 mi SE 8.1 mph - N/A   Partly Cloudy
12:00 PM 61 °F 35 °F 27% 30.00 in 19 mi SE 8.1 mph - -   Scattered Clouds
12:55 PM 62.6 °F 33.8 °F 34% 29.98 in 6.2 mi South 4.6 mph - N/A   Partly Cloudy
1:00 PM 63 °F 33 °F 21% 29.99 in 19 mi South 4.6 mph - -   Scattered Clouds
1:55 PM 64.4 °F 30.2 °F 28% 29.95 in 6.2 mi SSE 6.9 mph - N/A   Scattered Clouds
2:00 PM 64 °F 30 °F 17% 29.97 in 19 mi SSE 6.9 mph - -   Partly Cloudy
2:55 PM 64.4 °F 30.2 °F 28% 29.95 in 6.2 mi SE 5.8 mph - N/A   Scattered Clouds
3:00 PM 64 °F 30 °F 17% 29.96 in 19 mi SE 5.8 mph - -   Mostly Cloudy
3:55 PM 62.6 °F 30.2 °F 30% 29.95 in 6.2 mi SSW 6.9 mph - N/A   Scattered Clouds
4:00 PM 63 °F 31 °F 18% 29.96 in 19 mi SSW 6.9 mph - -   Partly Cloudy
4:55 PM 62.6 °F 32.0 °F 32% 29.95 in 6.2 mi SSW 4.6 mph - N/A   Scattered Clouds
5:00 PM 63 °F 31 °F 19% 29.95 in 19 mi SSW 4.6 mph - -   Partly Cloudy
5:55 PM 62.6 °F 30.2 °F 30% 29.92 in 6.2 mi SSW 8.1 mph - N/A   Scattered Clouds
6:00 PM 63 °F 30 °F 18% 29.94 in 19 mi SSW 8.1 mph - -   Partly Cloudy
6:55 PM 60.8 °F 28.4 °F 29% 29.95 in 6.2 mi South 6.9 mph - N/A   Partly Cloudy
7:00 PM 62 °F 29 °F 17% 29.95 in 19 mi South 6.9 mph - -   Partly Cloudy
7:55 PM 59.0 °F 26.6 °F 29% 29.98 in 6.2 mi SE 11.5 mph - N/A   Scattered Clouds
8:00 PM 59 °F 27 °F 18% 29.99 in 19 mi SE 11.5 mph - -   Partly Cloudy
8:55 PM 55.4 °F 24.8 °F 31% 30.01 in 6.2 mi SE 8.1 mph - N/A   Scattered Clouds
9:00 PM 56 °F 25 °F 18% 30.02 in 19 mi SE 8.1 mph - -   Partly Cloudy
9:55 PM 53.6 °F 24.8 °F 33% 30.04 in 6.2 mi East 4.6 mph - N/A   Scattered Clouds
10:00 PM 54 °F 26 °F 21% 30.05 in 19 mi East 4.6 mph - -   Partly Cloudy
10:55 PM 50.0 °F 30.2 °F 47% 30.04 in 6.2 mi North 5.8 mph - N/A   Mostly Cloudy
11:00 PM 50 °F 29 °F 33% 30.06 in 19 mi North 5.8 mph - -   Mostly Cloudy
11:55 PM 51.8 °F 30.2 °F 44% 30.06 in 6.2 mi NE 6.9 mph - N/A   Mostly Cloudy